Weather History for KGWB - December, 2013

Change the Weather History Date:

Sunday, December 29, 2013

  Actual Average (KFWA) Record (KFWA)
Temperature  
Mean Temperature 34 °F 26 °F  
Max Temperature 42 °F 33 °F 63 °F (1984)
Min Temperature 26 °F 19 °F -5 °F (1909)
Degree Days  
Heating Degree Days 31 39  
Month to date heating degree days 1033  
Since 1 July heating degree days 2250  
Cooling Degree Days 0 0  
Month to date cooling degree days 0  
Year to date cooling degree days 809  
Moisture  
Dew Point 28 °F    
Average Humidity 74    
Maximum Humidity 93    
Minimum Humidity 61    
Precipitation  
Precipitation 0.00 in 0.08 in 1.79 in (1990)
Month to date precipitation 2.60  
Year to date precipitation 38.17  
Snow  
Snow 0.00 in 0.30 in 4.00 in (1980)
Month to date snowfall 7.8  
Since 1 July snowfall 9.9  
Snow Depth -    
Sea Level Pressure  
Sea Level Pressure 29.85 in    
Wind  
Wind Speed 8 mph (WSW)    
Max Wind Speed 17 mph    
Max Gust Speed 25 mph    
Visibility 10 miles    
Events Snow    
T = Trace of Precipitation, MM = Missing Value Source: NWS Daily Summary

Daily Weather History Graph

Daily Weather History Graph

Search for Another Location

Airport or City:

Trip Planner

Search our weather history database for the weather conditions in past years. The results will help you decide how hot, cold, wet, or windy it might be!

Date:

Astronomy

Dec. 29, 2013 Rise Set
Actual Time 8:05 AM EST 5:19 PM EST
Civil Twilight 7:34 AM EST 5:50 PM EST
Nautical Twilight 6:59 AM EST 6:25 PM EST
Astronomical Twilight 6:26 AM EST 6:59 PM EST
Moon 4:47 AM EST (12/29) 2:57 PM EST (12/29)
Length of Visible Light 10h 16m
Length of Day
9h 13m
Waning Crescent, 11% of the Moon is Illuminated
Dec 29
Waning Crescent
Jan 1
New
Jan 7
First Quarter
Jan 15
Full
Jan 24
Last Quarter

Hourly Weather History & Observations

Time (EST) Temp. Windchill Dew Point Humidity Pressure Visibility Wind Dir Wind Speed Gust Speed Precip Events Conditions
12:15 AM 39.2 °F 34.2 °F 28.4 °F 65% 29.91 in 10.0 mi SSW 6.9 mph - N/A   Clear
12:35 AM 41.0 °F 36.4 °F 28.4 °F 61% 29.91 in 10.0 mi SW 6.9 mph - N/A   Clear
12:55 AM 39.2 °F 33.6 °F 28.4 °F 65% 29.91 in 10.0 mi SSW 8.1 mph - N/A   Clear
1:15 AM 37.4 °F 32.1 °F 28.4 °F 70% 29.90 in 10.0 mi SSW 6.9 mph - N/A   Clear
1:35 AM 37.4 °F 32.1 °F 28.4 °F 70% 29.90 in 10.0 mi SSW 6.9 mph - N/A   Clear
1:55 AM 37.4 °F 32.1 °F 28.4 °F 70% 29.90 in 10.0 mi SSW 6.9 mph - N/A   Clear
2:15 AM 37.4 °F 32.1 °F 28.4 °F 70% 29.89 in 10.0 mi SSW 6.9 mph - N/A   Clear
2:35 AM 39.2 °F 35.0 °F 26.6 °F 61% 29.89 in 10.0 mi SW 5.8 mph - N/A   Clear
2:55 AM 39.2 °F 37.0 °F 26.6 °F 61% 29.88 in 10.0 mi SW 3.5 mph - N/A   Clear
3:15 AM 37.4 °F 33.8 °F 26.6 °F 65% 29.88 in 10.0 mi SW 4.6 mph - N/A   Clear
3:35 AM 37.4 °F - 26.6 °F 65% 29.87 in 10.0 mi Calm Calm - N/A   Clear
3:55 AM 37.4 °F - 26.6 °F 65% 29.86 in 10.0 mi Calm Calm - N/A   Clear
4:15 AM 37.4 °F - 26.6 °F 65% 29.87 in 10.0 mi Calm Calm - N/A   Clear
4:35 AM 37.4 °F - 26.6 °F 65% 29.85 in 10.0 mi Calm Calm - N/A   Clear
4:55 AM 35.6 °F 32.8 °F 28.4 °F 75% 29.84 in 10.0 mi South 3.5 mph - N/A   Clear
5:15 AM 35.6 °F 32.8 °F 28.4 °F 75% 29.83 in 10.0 mi South 3.5 mph - N/A   Clear
5:35 AM 35.6 °F 32.8 °F 28.4 °F 75% 29.83 in 10.0 mi South 3.5 mph - N/A   Clear
5:55 AM 35.6 °F 32.8 °F 28.4 °F 75% 29.82 in 10.0 mi South 3.5 mph - N/A   Clear
6:15 AM 35.6 °F 31.7 °F 28.4 °F 75% 29.81 in 10.0 mi SSW 4.6 mph - N/A   Mostly Cloudy
6:35 AM 35.6 °F 31.7 °F 28.4 °F 75% 29.80 in 10.0 mi SSW 4.6 mph - N/A   Mostly Cloudy
6:55 AM 35.6 °F 29.9 °F 28.4 °F 75% 29.80 in 10.0 mi South 6.9 mph - N/A   Scattered Clouds
7:15 AM 35.6 °F 30.7 °F 28.4 °F 75% 29.80 in 10.0 mi SSW 5.8 mph - N/A   Clear
7:35 AM 37.4 °F 33.8 °F 28.4 °F 70% 29.80 in 10.0 mi SW 4.6 mph - N/A   Clear
7:55 AM 37.4 °F 32.8 °F 28.4 °F 70% 29.79 in 10.0 mi SW 5.8 mph - N/A   Clear
8:15 AM 37.4 °F 33.8 °F 28.4 °F 70% 29.78 in 10.0 mi SSW 4.6 mph - N/A   Clear
8:35 AM 37.4 °F 33.8 °F 28.4 °F 70% 29.78 in 10.0 mi SSW 4.6 mph - N/A   Clear
8:55 AM 37.4 °F 32.1 °F 28.4 °F 70% 29.78 in 10.0 mi SW 6.9 mph - N/A   Clear
9:15 AM 37.4 °F 32.8 °F 28.4 °F 70% 29.78 in 10.0 mi SSW 5.8 mph - N/A   Clear
9:35 AM 37.4 °F 32.1 °F 28.4 °F 70% 29.78 in 10.0 mi SW 6.9 mph - N/A   Clear
9:55 AM 37.4 °F 31.4 °F 28.4 °F 70% 29.78 in 10.0 mi SSW 8.1 mph - N/A   Clear
10:15 AM 37.4 °F 32.1 °F 28.4 °F 70% 29.78 in 10.0 mi SW 6.9 mph - N/A   Clear
10:35 AM 37.4 °F 32.1 °F 28.4 °F 70% 29.78 in 10.0 mi WSW 6.9 mph - N/A   Clear
10:55 AM 37.4 °F 32.1 °F 30.2 °F 75% 29.78 in 10.0 mi WSW 6.9 mph - N/A   Clear
11:15 AM 37.4 °F 30.8 °F 30.2 °F 75% 29.78 in 10.0 mi WSW 9.2 mph - N/A   Clear
11:35 AM 41.0 °F 34.7 °F 30.2 °F 65% 29.77 in 10.0 mi WSW 10.4 mph - N/A   Clear
11:55 AM 41.0 °F 33.5 °F 32.0 °F 70% 29.77 in 10.0 mi West 13.8 mph - N/A   Clear
12:15 PM 41.0 °F 34.7 °F 32.0 °F 70% 29.75 in 10.0 mi West 10.4 mph - N/A   Clear
12:35 PM 42.8 °F 37.0 °F 32.0 °F 66% 29.74 in 10.0 mi West 10.4 mph - N/A   Clear
12:55 PM 42.8 °F 37.5 °F 32.0 °F 66% 29.73 in 10.0 mi West 9.2 mph - N/A   Clear
1:15 PM 42.8 °F 36.2 °F 32.0 °F 66% 29.73 in 10.0 mi West 12.7 mph 18.4 mph N/A   Clear
1:35 PM 42.8 °F 36.2 °F 32.0 °F 66% 29.73 in 10.0 mi West 12.7 mph 17.3 mph N/A   Clear
1:55 PM 41.0 °F 33.1 °F 32.0 °F 70% 29.74 in 10.0 mi West 15.0 mph - N/A   Mostly Cloudy
2:15 PM 41.0 °F 32.5 °F 32.0 °F 70% 29.76 in 10.0 mi West 17.3 mph 20.7 mph N/A   Overcast
2:35 PM 39.2 °F 30.8 °F 32.0 °F 75% 29.76 in 10.0 mi WNW 15.0 mph 19.6 mph N/A   Overcast
2:55 PM 37.4 °F 29.8 °F 32.0 °F 81% 29.76 in 10.0 mi West 11.5 mph - N/A   Overcast
3:15 PM 37.4 °F 30.3 °F 32.0 °F 81% 29.76 in 10.0 mi WNW 10.4 mph - N/A   Overcast
3:35 PM 37.4 °F 29.3 °F 32.0 °F 81% 29.77 in 7.0 mi West 12.7 mph - N/A   Overcast
3:55 PM 35.6 °F 27.5 °F 32.0 °F 87% 29.78 in 7.0 mi West 11.5 mph 20.7 mph N/A   Overcast
4:15 PM 35.6 °F 27.5 °F 32.0 °F 87% 29.80 in 1.8 mi WNW 11.5 mph - N/A   Overcast
4:35 PM 33.8 °F 25.8 °F 32.0 °F 93% 29.81 in 4.0 mi West 10.4 mph 18.4 mph N/A   Overcast
4:55 PM 33.8 °F 23.5 °F 30.2 °F 87% 29.83 in 10.0 mi West 16.1 mph 20.7 mph N/A   Overcast
5:15 PM 32.0 °F 21.2 °F 30.2 °F 93% 29.84 in 10.0 mi WNW 16.1 mph 23.0 mph N/A   Overcast
5:35 PM 32.0 °F 22.1 °F 28.4 °F 87% 29.85 in 10.0 mi WNW 13.8 mph 25.3 mph N/A   Overcast
5:55 PM 32.0 °F 21.6 °F 26.6 °F 80% 29.86 in 10.0 mi WNW 15.0 mph 24.2 mph N/A   Overcast
6:15 PM 32.0 °F 21.6 °F 26.6 °F 80% 29.88 in 10.0 mi NW 15.0 mph - N/A   Overcast
6:35 PM 32.0 °F 22.1 °F 26.6 °F 80% 29.89 in 10.0 mi WNW 13.8 mph 19.6 mph N/A   Overcast
6:55 PM 30.2 °F 19.8 °F 24.8 °F 80% 29.90 in 10.0 mi NW 13.8 mph 21.9 mph N/A   Overcast
7:15 PM 30.2 °F 18.9 °F 23.0 °F 75% 29.92 in 10.0 mi NW 16.1 mph 21.9 mph N/A   Overcast
7:35 PM 30.2 °F 19.3 °F 23.0 °F 75% 29.93 in 10.0 mi WNW 15.0 mph 25.3 mph N/A   Overcast
7:55 PM 30.2 °F 19.8 °F 23.0 °F 75% 29.95 in 10.0 mi WNW 13.8 mph 24.2 mph N/A   Overcast
8:15 PM 30.2 °F 19.8 °F 23.0 °F 75% 29.95 in 10.0 mi WNW 13.8 mph 20.7 mph N/A   Overcast
8:35 PM 28.4 °F 18.0 °F 23.0 °F 80% 29.97 in 10.0 mi NW 12.7 mph 19.6 mph N/A   Overcast
8:55 PM 28.4 °F 18.0 °F 23.0 °F 80% 29.97 in 10.0 mi NW 12.7 mph 19.6 mph N/A   Overcast
9:15 PM 28.4 °F 18.5 °F 23.0 °F 80% 29.99 in 10.0 mi NW 11.5 mph 20.7 mph N/A   Overcast
9:35 PM 28.4 °F 17.5 °F 23.0 °F 80% 29.99 in 10.0 mi NW 13.8 mph 19.6 mph N/A   Overcast
9:55 PM 26.6 °F 17.5 °F 21.2 °F 80% 30.00 in 10.0 mi NW 9.2 mph 17.3 mph N/A   Overcast
10:15 PM 26.6 °F 18.2 °F 21.2 °F 80% 30.01 in 10.0 mi NW 8.1 mph - N/A   Overcast
10:35 PM 26.6 °F 17.5 °F 23.0 °F 86% 30.01 in 10.0 mi NW 9.2 mph - N/A   Overcast
10:55 PM 26.6 °F 17.5 °F 23.0 °F 86% 30.02 in 5.0 mi WNW 9.2 mph - N/A Snow Light Snow
11:15 PM 26.6 °F 15.7 °F 19.4 °F 74% 30.02 in 10.0 mi WNW 12.7 mph 21.9 mph N/A   Overcast
11:35 PM 26.6 °F 15.2 °F 19.4 °F 74% 30.03 in 10.0 mi WNW 13.8 mph 20.7 mph N/A   Overcast
11:55 PM 26.6 °F 15.7 °F 19.4 °F 74% 30.03 in 10.0 mi NW 12.7 mph 18.4 mph N/A   Overcast